Tracking 20093 objects as of 15-Dec-2019
HD Live streaming from Space Station
objects crossing your sky now

COSMOS 2251 DEB

Track COSMOS 2251 DEB now!
10-day predictions


NORAD ID: 33760
Int'l Code: 1993-036H
Perigee: 768.8 km
Apogee: 800.5 km
Inclination: 74.0 °
Period: 100.4 minutes
Semi major axis: 7155 km
RCS: 0.111 m2 (medium)
Launch date: June 16, 1993
Source: Commonwealth of Independent States (former USSR) (CIS)
Launch site: PLESETSK MISSILE AND SPACE COMPLEX (PKMTR)

Note: This is SATELLITE DEBRIS
aabbcc
Your satellite tracking list
Your tracking list is empty




NASA's NSSDC Master Catalog

Two Line Element Set (TLE):
1 33760U 93036H   19348.92185736 +.00000013 +00000-0 +13902-4 0  9999
2 33760 074.0322 333.9205 0022169 247.3041 137.3108 14.34258596567205
Source of the keplerian elements: AFSPC